EN

Hourly Weather Aller

Today, 24 January, Sunday

Time Temperature Precipitation Wind Pressure Humidity
00:00 +2°C° 2.2 mm 2 mps 663 mmHg 98%
01:00 +2°C° 1.7 mm 2 mps 664 mmHg 97%
02:00 +1°C° 1.7 mm 2 mps 664 mmHg 97%
03:00 +1°C° 1.7 mm 2 mps 665 mmHg 97%
04:00 +1°C° 0.3 mm 2 mps 665 mmHg 96%
05:00 +1°C° 0.3 mm 2 mps 666 mmHg 96%
06:00 -1°C° 0.3 mm 2 mps 666 mmHg 96%
07:00 +1°C° 0.1 mm 2 mps 667 mmHg 95%
08:00 +1°C° 0.1 mm 2 mps 667 mmHg 95%
09:00 +2°C° 0.1 mm 1 mps 668 mmHg 94%
10:00 +3°C° 0.1 mm 1 mps 668 mmHg 92%
11:00 +2°C° 0.1 mm 2 mps 668 mmHg 89%
12:00 +3°C° 0.1 mm 2 mps 669 mmHg 87%
13:00 +3°C° 0.1 mm 2 mps 669 mmHg 87%
14:00 +3°C° 0.1 mm 2 mps 669 mmHg 88%
15:00 +3°C° 0.1 mm 2 mps 669 mmHg 89%
16:00 +4°C° 0.2 mm 1 mps 669 mmHg 91%
17:00 +3°C° 0.2 mm 1 mps 669 mmHg 93%
18:00 +3°C° 0.2 mm 1 mps 669 mmHg 96%
19:00 +3°C° 0.3 mm 1 mps 670 mmHg 96%
20:00 +3°C° 0.3 mm 1 mps 670 mmHg 96%
21:00 +3°C° 0.3 mm 1 mps 670 mmHg 96%
22:00 +3°C° 0.1 mm 1 mps 670 mmHg 96%
23:00 +2°C° 0.1 mm 0 mps 671 mmHg 96%

Tomorrow, 25 January, Monday

Time Temperature Precipitation Wind Pressure Humidity
00:00 +1°C° 0.1 mm 0 mps 671 mmHg 96%
01:00 +2°C° 0 mm 1 mps 671 mmHg 96%
02:00 +2°C° 0 mm 1 mps 671 mmHg 95%
03:00 +1°C° 0 mm 1 mps 671 mmHg 94%
04:00 +1°C° 0 mm 1 mps 670 mmHg 92%
05:00 0°C° 0 mm 1 mps 670 mmHg 90%
06:00 -1°C° 0 mm 1 mps 670 mmHg 88%
07:00 0°C° 0 mm 1 mps 670 mmHg 85%
08:00 0°C° 0 mm 1 mps 671 mmHg 82%
09:00 +1°C° 0 mm 1 mps 672 mmHg 78%
10:00 +2°C° 0 mm 1 mps 672 mmHg 80%
11:00 +4°C° 0 mm 1 mps 672 mmHg 81%
12:00 +4°C° 0 mm 0 mps 673 mmHg 82%
13:00 +4°C° 0 mm 0 mps 673 mmHg 81%
14:00 +5°C° 0 mm 1 mps 672 mmHg 80%
15:00 +6°C° 0 mm 1 mps 672 mmHg 80%
16:00 +5°C° 0 mm 1 mps 672 mmHg 82%
17:00 +4°C° 0 mm 1 mps 672 mmHg 85%
18:00 +2°C° 0 mm 2 mps 672 mmHg 87%
19:00 +2°C° 0 mm 2 mps 672 mmHg 86%
20:00 +2°C° 0 mm 2 mps 673 mmHg 86%
21:00 +2°C° 0 mm 2 mps 673 mmHg 85%
22:00 +2°C° 0 mm 2 mps 673 mmHg 86%
23:00 +3°C° 0 mm 2 mps 673 mmHg 86%

Day after tomorrow, 26 January, Tuesday

Time Temperature Precipitation Wind Pressure Humidity
00:00 +3°C° 0 mm 2 mps 673 mmHg 86%
01:00 +3°C° 0 mm 2 mps 673 mmHg 87%
02:00 +3°C° 0 mm 2 mps 673 mmHg 87%
03:00 +4°C° 0 mm 2 mps 673 mmHg 88%
04:00 +4°C° 0.3 mm 2 mps 673 mmHg 89%
05:00 +4°C° 0.3 mm 2 mps 672 mmHg 91%
06:00 +4°C° 0.3 mm 2 mps 672 mmHg 93%
07:00 +4°C° 1 mm 2 mps 672 mmHg 94%
08:00 +5°C° 1 mm 2 mps 673 mmHg 94%
09:00 +5°C° 1 mm 2 mps 673 mmHg 95%
10:00 +5°C° 0.6 mm 2 mps 673 mmHg 95%
11:00 +6°C° 0.6 mm 2 mps 674 mmHg 95%
12:00 +7°C° 0.6 mm 2 mps 674 mmHg 95%
13:00 +8°C° 0.1 mm 1 mps 674 mmHg 95%
14:00 +9°C° 0.1 mm 1 mps 675 mmHg 95%
15:00 +9°C° 0.1 mm 1 mps 675 mmHg 95%
16:00 +9°C° 0 mm 1 mps 675 mmHg 96%
17:00 +8°C° 0 mm 1 mps 675 mmHg 97%
18:00 +8°C° 0 mm 1 mps 676 mmHg 97%
19:00 +8°C° 0 mm 1 mps 676 mmHg 98%
20:00 +7°C° 0 mm 1 mps 677 mmHg 98%
21:00 +7°C° 0 mm 1 mps 677 mmHg 98%
22:00 +7°C° 0 mm 1 mps 677 mmHg 98%
23:00 +7°C° 0 mm 1 mps 678 mmHg 97%

27 January, Wednesday

Time Temperature Precipitation Wind Pressure Humidity
00:00 +7°C° 0 mm 1 mps 678 mmHg 97%
01:00 +6°C° 0 mm 1 mps 677 mmHg 93%
02:00 +6°C° 0 mm 1 mps 677 mmHg 89%
03:00 +6°C° 0 mm 1 mps 677 mmHg 85%
04:00 +6°C° 0 mm 1 mps 677 mmHg 81%
05:00 +6°C° 0 mm 1 mps 677 mmHg 77%
06:00 +6°C° 0 mm 1 mps 676 mmHg 73%
07:00 +6°C° 0 mm 1 mps 677 mmHg 74%
08:00 +6°C° 0 mm 1 mps 677 mmHg 75%
09:00 +7°C° 0 mm 1 mps 677 mmHg 76%
10:00 +8°C° 0 mm 1 mps 677 mmHg 78%
11:00 +9°C° 0 mm 1 mps 678 mmHg 79%
12:00 +10°C° 0 mm 1 mps 678 mmHg 81%
13:00 +10°C° 0 mm 1 mps 678 mmHg 82%
14:00 +9°C° 0 mm 2 mps 677 mmHg 83%
15:00 +9°C° 0 mm 2 mps 677 mmHg 85%
16:00 +8°C° 0 mm 2 mps 676 mmHg 87%
17:00 +7°C° 0 mm 2 mps 676 mmHg 89%
18:00 +7°C° 0 mm 2 mps 676 mmHg 92%
19:00 +6°C° 0 mm 2 mps 676 mmHg 92%
20:00 +6°C° 0 mm 2 mps 676 mmHg 92%
21:00 +6°C° 0 mm 2 mps 676 mmHg 92%
22:00 +6°C° 0 mm 2 mps 676 mmHg 92%
23:00 +6°C° 0 mm 2 mps 676 mmHg 92%

28 January, Thursday

Time Temperature Precipitation Wind Pressure Humidity
00:00 +6°C° 0 mm 2 mps 676 mmHg 92%
01:00 +6°C° 0 mm 2 mps 676 mmHg 92%
02:00 +6°C° 0 mm 2 mps 676 mmHg 92%
03:00 +6°C° 0 mm 2 mps 676 mmHg 93%
04:00 +6°C° 0 mm 2 mps 676 mmHg 93%
05:00 +6°C° 0 mm 2 mps 676 mmHg 93%
06:00 +6°C° 0 mm 2 mps 676 mmHg 94%
07:00 +6°C° 0 mm 2 mps 676 mmHg 93%
08:00 +6°C° 0 mm 2 mps 677 mmHg 91%
09:00 +6°C° 0 mm 2 mps 677 mmHg 90%
10:00 +8°C° 0 mm 2 mps 677 mmHg 87%
11:00 +9°C° 0 mm 2 mps 678 mmHg 83%
12:00 +10°C° 0 mm 2 mps 678 mmHg 80%
13:00 +10°C° 0 mm 2 mps 678 mmHg 80%
14:00 +10°C° 0 mm 2 mps 677 mmHg 80%
15:00 +10°C° 0 mm 2 mps 677 mmHg 80%
16:00 +9°C° 0 mm 2 mps 677 mmHg 83%
17:00 +7°C° 0 mm 2 mps 677 mmHg 86%
18:00 +6°C° 0 mm 2 mps 676 mmHg 90%

29 January, Friday

Time Temperature Precipitation Wind Pressure Humidity
Show more